Total_Precipitation_Accumulation
3.05 3.09 3.02 2.91 2.72 2.59 2.42 2.28 2.21 2.14 2.12 2.10 2.13 2.16 2.19 2.21 2.26 2.23 2.05 2.09 2.16 2.34 2.46 2.52 2.55 2.61 2.71 2.67 2.71 2.77 2.90 3.10 3.18 2.90 2.68 2.64 2.67 2.55 2.40 2.17 2.00 1.99 1.93
2.67 2.72 2.73 2.66 2.49 2.29 2.14 2.05 2.08 2.07 2.04 2.03 2.03 1.99 2.01 2.16 2.27 2.19 2.02 1.95 2.08 2.24 2.38 2.53 2.48 2.44 2.47 2.52 2.61 2.59 2.59 2.77 2.95 2.87 2.71 2.60 2.59 2.55 2.50 2.41 1.96 1.75 1.71
2.57 2.59 2.60 2.63 2.47 2.25 2.14 2.18 2.21 2.10 2.06 2.01 1.95 1.93 1.96 2.04 2.10 2.02 1.94 1.90 1.95 2.04 2.16 2.23 2.27 2.32 2.23 2.19 2.22 2.30 2.32 2.38 2.64 2.65 2.55 2.47 2.37 2.34 2.41 2.32 2.06 2.04 1.65
2.51 2.44 2.26 2.18 2.16 2.16 2.11 2.12 2.11 2.03 2.01 2.01 2.00 1.98 1.94 1.85 1.73 1.69 1.69 1.71 1.76 1.77 1.82 1.85 1.94 2.09 2.10 2.07 2.00 2.11 2.22 2.39 2.49 2.52 2.39 2.31 2.30 2.18 2.31 2.28 2.19 2.03 1.80
2.69 2.56 2.38 2.18 2.17 2.18 2.11 2.06 2.05 1.99 1.84 1.88 1.92 1.85 1.71 1.55 1.37 1.41 1.48 1.50 1.61 1.63 1.63 1.55 1.54 1.75 1.92 1.87 1.68 1.86 2.12 2.32 2.39 2.41 2.29 2.15 2.06 2.17 2.15 2.09 2.11 2.10 1.98
2.58 2.64 2.66 2.58 2.58 2.45 2.25 2.16 2.14 2.11 2.03 1.92 1.87 1.79 1.64 1.33 1.35 1.33 1.43 1.56 1.65 1.62 1.63 1.60 1.48 1.51 1.59 1.55 1.48 1.62 1.90 2.00 2.13 2.32 2.28 2.16 2.05 2.07 2.16 2.16 2.22 2.28 2.20
2.59 2.67 2.67 2.65 2.59 2.51 2.30 2.24 2.28 2.22 2.13 1.99 1.84 1.78 1.71 1.61 1.49 1.26 1.30 1.44 1.54 1.53 1.54 1.58 1.39 1.30 1.51 1.53 1.53 1.50 1.56 1.58 1.71 2.08 2.30 2.15 2.12 2.21 2.42 2.39 2.49 2.45 2.25
2.76 2.74 2.63 2.50 2.49 2.44 2.44 2.42 2.35 2.26 2.15 2.03 1.88 1.73 1.62 1.37 1.26 1.14 1.19 1.29 1.49 1.48 1.44 1.49 1.55 1.45 1.39 1.46 1.45 1.44 1.46 1.50 1.48 1.58 1.87 2.01 2.09 2.26 2.46 2.55 2.68 2.59 2.41
2.67 2.56 2.47 2.48 2.50 2.33 2.32 2.31 2.29 2.19 2.06 1.94 1.82 1.72 1.62 1.40 1.20 1.09 1.19 1.33 1.50 1.47 1.42 1.40 1.47 1.47 1.47 1.42 1.45 1.56 1.60 1.57 1.38 1.40 1.49 1.67 1.80 1.98 2.14 2.30 2.57 2.74 2.53
2.27 2.09 2.02 2.14 2.17 2.01 1.91 1.90 1.94 1.99 1.97 1.88 1.75 1.69 1.61 1.55 1.41 1.22 1.22 1.28 1.42 1.45 1.52 1.48 1.44 1.42 1.44 1.39 1.50 1.68 1.67 1.62 1.51 1.47 1.58 1.67 1.68 1.84 1.99 2.14 2.50 2.63 2.45
1.98 1.88 1.90 1.89 1.87 1.83 1.84 1.87 1.82 1.74 1.78 1.81 1.79 1.68 1.57 1.44 1.34 1.21 1.17 1.07 1.19 1.34 1.40 1.48 1.42 1.36 1.33 1.34 1.47 1.56 1.58 1.57 1.71 1.86 1.86 1.80 1.80 1.87 1.90 1.99 2.28 2.47 2.53
1.83 1.75 1.80 1.78 1.67 1.75 1.92 1.87 1.82 1.82 1.78 1.73 1.75 1.64 1.44 1.32 1.18 1.07 1.07 1.09 1.16 1.30 1.39 1.42 1.38 1.34 1.31 1.37 1.40 1.47 1.51 1.59 1.79 1.99 1.98 1.88 1.77 1.73 1.78 1.85 2.04 2.24 2.34
1.81 1.74 1.67 1.61 1.70 1.78 1.90 1.85 1.77 1.73 1.60 1.47 1.44 1.40 1.28 1.14 1.03 0.97 0.97 1.05 1.17 1.24 1.30 1.36 1.31 1.30 1.31 1.42 1.46 1.50 1.60 1.80 1.95 2.03 2.00 1.91 1.81 1.75 1.75 1.74 1.86 2.11 2.14
1.89 1.81 1.68 1.59 1.58 1.62 1.70 1.71 1.62 1.54 1.44 1.34 1.27 1.21 1.16 1.13 1.02 0.93 0.94 0.99 1.07 1.16 1.22 1.28 1.36 1.42 1.43 1.52 1.64 1.74 1.79 1.88 1.89 2.01 2.06 1.96 1.85 1.81 1.81 1.79 1.92 2.05 2.09
1.78 1.63 1.52 1.42 1.37 1.40 1.41 1.40 1.40 1.29 1.24 1.20 1.10 1.02 1.07 1.06 0.98 0.99 0.98 0.98 1.03 1.07 1.11 1.26 1.48 1.54 1.64 1.71 1.74 1.78 1.82 1.77 1.73 1.77 1.88 1.93 1.95 1.87 1.81 1.77 1.92 1.99 2.05
1.67 1.44 1.29 1.21 1.19 1.12 1.10 1.12 1.13 1.12 1.10 1.04 1.03 0.98 0.89 0.86 0.85 0.85 0.89 0.96 1.03 1.11 1.14 1.29 1.42 1.48 1.59 1.65 1.67 1.68 1.71 1.72 1.66 1.68 1.77 1.81 1.84 1.82 1.84 1.79 1.85 2.02 2.06
1.45 1.29 1.09 1.03 1.05 1.04 1.03 1.13 1.16 1.02 0.98 0.95 0.98 0.95 0.90 0.83 0.78 0.83 0.95 1.04 1.15 1.28 1.33 1.42 1.42 1.47 1.56 1.55 1.56 1.59 1.63 1.66 1.62 1.63 1.62 1.64 1.68 1.67 1.73 1.77 1.74 1.81 1.84
1.12 1.07 1.02 1.00 0.97 0.94 0.93 1.01 1.10 1.16 1.12 1.01 0.96 0.97 0.92 0.93 0.91 0.95 1.06 1.12 1.25 1.39 1.44 1.49 1.50 1.50 1.54 1.57 1.59 1.59 1.56 1.53 1.52 1.57 1.61 1.60 1.61 1.57 1.57 1.58 1.58 1.60 1.70
0.94 0.93 0.95 0.96 0.89 0.85 0.81 0.84 0.88 0.96 1.07 1.10 1.04 1.05 1.07 1.10 1.11 1.13 1.17 1.16 1.28 1.40 1.42 1.45 1.49 1.47 1.47 1.54 1.53 1.49 1.45 1.43 1.45 1.48 1.53 1.57 1.57 1.49 1.49 1.45 1.45 1.49 1.56
0.88 0.86 0.89 0.88 0.88 0.91 0.88 0.87 0.92 0.97 1.03 1.08 1.11 1.10 1.15 1.23 1.27 1.30 1.28 1.25 1.25 1.30 1.31 1.34 1.31 1.30 1.38 1.44 1.40 1.33 1.30 1.35 1.42 1.44 1.47 1.48 1.45 1.42 1.41 1.39 1.38 1.41 1.47
0.84 0.82 0.84 0.79 0.82 0.88 0.94 1.01 1.05 1.09 1.17 1.28 1.32 1.31 1.28 1.26 1.35 1.34 1.35 1.33 1.25 1.25 1.27 1.27 1.25 1.22 1.27 1.33 1.34 1.31 1.27 1.28 1.31 1.35 1.40 1.41 1.39 1.38 1.32 1.29 1.31 1.32 1.31
0.97 0.94 0.85 0.80 0.79 0.80 0.83 0.94 1.08 1.21 1.29 1.35 1.37 1.35 1.35 1.24 1.27 1.31 1.32 1.33 1.29 1.28 1.26 1.26 1.20 1.17 1.20 1.27 1.32 1.30 1.25 1.23 1.26 1.32 1.34 1.32 1.30 1.28 1.25 1.26 1.30 1.32 1.29
0.95 0.95 0.94 0.94 0.88 0.87 0.84 0.88 1.02 1.12 1.18 1.31 1.33 1.25 1.18 1.17 1.22 1.24 1.21 1.12 1.02 0.99 1.02 1.09 1.09 1.05 1.06 1.10 1.13 1.15 1.13 1.16 1.21 1.24 1.26 1.24 1.27 1.23 1.19 1.18 1.16 1.22 1.27
0.94 0.92 0.98 1.04 0.99 0.94 0.90 0.89 0.96 1.01 1.03 1.13 1.22 1.24 1.20 1.17 1.11 1.05 1.00 0.89 0.81 0.81 0.82 0.86 0.94 0.97 0.99 0.98 0.98 1.00 1.01 1.04 1.06 1.04 1.06 1.11 1.16 1.11 1.10 1.11 1.12 1.14 1.19
0.95 0.99 1.03 1.02 1.03 1.01 0.95 0.90 0.92 0.92 0.94 1.02 1.09 1.09 1.08 1.06 1.02 0.99 0.93 0.88 0.82 0.79 0.77 0.76 0.78 0.85 0.91 0.89 0.88 0.88 0.93 0.97 0.97 0.95 0.92 0.93 0.95 0.96 1.04 1.08 1.09 1.11 1.12
0.78 0.89 1.00 1.04 1.08 1.06 1.01 0.98 0.96 0.94 0.93 0.94 0.95 0.97 0.97 0.96 0.94 0.92 0.87 0.83 0.80 0.77 0.73 0.69 0.67 0.72 0.79 0.82 0.84 0.85 0.84 0.80 0.80 0.87 0.86 0.86 0.88 0.90 0.95 0.99 0.97 1.04 1.11